Hourly Data Report for June 06, 2021

TOBERMORY RCS
ONTARIO
Current Station Operator: ECCC - MSC

45°14'00.000" N
81°38'00.000" W
213.50 m
6128330
71767
TTR

Download Data

Hourly Data (June 2021)
Hourly Data Report for June 6, 2021
TIME
LST
Temp Definition
°C
Dew Point Definition
°C
Rel Hum Definition
%
Precip. Amount Definition
mm

Wind Dir Definition
10's deg

Wind Spd Definition
km/h
Visibility Definition
km
Stn Press Definition
kPa
Hmdx Definition


Wind Chill Definition


Weather Definition


00:00 14.2 10.8 80 0.0 17 11   98.54     LegendNANA
01:00 15.5 11.3 76 0.0 18 9   98.54     LegendNANA
02:00 14.7 12.8 89 1.0 16 10   98.52     LegendNANA
03:00 15.8 13.1 84 0.0 18 8   98.55     LegendNANA
04:00 15.1 13.8 92 1.2 18 11   98.54     LegendNANA
05:00 16.6 14.1 85 0.0 19 12   98.62     LegendNANA
06:00 16.8 15.7 93 6.8 19 7   98.72     LegendNANA
07:00 15.8 13.6 86 0.0 18 11   98.71     LegendNANA
08:00 15.6 13.3 86 0.0 18 12   98.74     LegendNANA
09:00 18.0 13.8 76 0.0 21 15   98.74     LegendNANA
10:00 18.8 14.5 76 0.0 21 13   98.77     LegendNANA
11:00 17.8 13.0 73 0.0 19 14   98.76     LegendNANA
12:00 19.2 13.8 71 0.0 20 15   98.78     LegendNANA
13:00 20.6 15.0 70 0.0 20 14   98.76 25   LegendNANA
14:00 19.9 14.0 69 0.0 20 16   98.76     LegendNANA
15:00 22.4 16.1 67 0.0 21 10   98.74 27   LegendNANA
16:00 21.9 15.0 65 0.0 21 13   98.72 26   LegendNANA
17:00 23.1 15.1 61 0.0 19 14   98.66 27   LegendNANA
18:00 22.7 15.2 63 0.0 19 11   98.64 27   LegendNANA
19:00 22.9 15.0 61 0.0 19 13   98.65 27   LegendNANA
20:00 22.6 14.3 59 0.0 20 14   98.68 26   LegendNANA
21:00 21.9 13.2 58 0.0 21 18   98.71 25   LegendNANA
22:00 19.3 12.0 63 0.0 20 13   98.75     LegendNANA
23:00 18.0 12.0 68 0.0 20 15   98.75     LegendNANA

Notes on Data Quality.

Legend

  • E = Estimated
  • M = Missing
  • NA = Not Available*
  • [empty] = Indicates an unobserved value
Date modified: